Location: N�rnberg
(49.4489°N, 11.0797°E)
Time: 03:56:29
(UTC+02:00)

ELECTRON R/B - Visible Passes

Search period start: 22 May 2018 00:00
Search period end: 01 June 2018 00:00
Orbit: 285 x 480 km, 82.9° (Epoch: 21 May)

Date Brightness Start Highest point End Pass type
(mag) Time Alt. Az. Time Alt. Az. Time Alt. Az.
22 May 5.2 22:06:26 10° NNW 22:08:48 48° W 22:11:09 10° S visible
23 May 7.6 22:44:23 10° WNW 22:44:56 11° W 22:45:29 10° W visible
24 May 4.9 21:46:13 10° NNW 21:48:38 58° W 21:51:03 10° S visible
25 May 7.5 22:23:34 10° WNW 22:24:39 12° W 22:25:45 10° WSW visible
27 May 7.4 22:02:39 10° NW 22:04:06 14° W 22:05:34 10° SW visible
